YT6PT-8 Weather Reports


time (UTC)temp
F
wind
direction
speed
knots
gust
knots
rain 1hr
in
rain 24hr
in
rain mn
in
humidity
%
barometer
mb
20260902180037 68 68 0.0 0.0 0.00 0.00 0.00 48 1010.4
20260902175536 68 68 0.0 0.0 0.00 0.00 0.00 48 1010.4
20260902175036 68 68 1.7 1.7 0.00 0.00 0.00 47 1010.0
20260902174536 68 68 1.7 1.7 0.00 0.00 0.00 47 1010.0
20260902174033 68 68 0.9 0.9 0.00 0.00 0.00 47 1010.0
20260902173555 68 68 0.9 0.9 0.00 0.00 0.00 47 1010.0
20260902173056 68 68 0.0 0.0 0.00 0.00 0.00 47 1010.0
20260902172556 68 68 0.0 0.0 0.00 0.00 0.00 47 1010.0
20260902172043 69 68 1.7 1.7 0.00 0.00 0.00 47 1010.0
20260902171536 69 68 1.7 1.7 0.00 0.00 0.00 47 1010.0
20260902171043 69 68 0.9 0.9 0.00 0.00 0.00 47 1010.0
20260902170536 69 68 0.9 0.9 0.00 0.00 0.00 47 1010.0
20260902170036 70 68 0.0 0.0 0.00 0.00 0.00 46 1010.2
20260902165535 70 68 0.0 0.0 0.00 0.00 0.00 46 1010.2
20260902165054 70 68 0.0 0.0 0.00 0.00 0.00 45 1010.0
20260902164555 70 68 0.0 0.0 0.00 0.00 0.00 45 1010.0
20260902164036 71 68 0.9 0.9 0.00 0.00 0.00 44 1010.0
20260902163536 71 68 0.9 0.9 0.00 0.00 0.00 44 1010.0
20260902163036 71 68 0.9 0.9 0.00 0.00 0.00 44 1009.9
20260902162535 71 68 0.9 0.9 0.00 0.00 0.00 44 1009.9
20260902162042 72 68 1.7 1.7 0.00 0.00 0.00 43 1010.1
20260902161535 72 68 1.7 1.7 0.00 0.00 0.00 43 1010.1
20260902161042 72 45 3.5 3.5 0.00 0.00 0.00 42 1010.1
20260902160536 72 45 3.5 3.5 0.00 0.00 0.00 42 1010.1
20260902160058 71 45 2.6 2.6 0.00 0.00 0.00 43 1010.1
20260902155552 71 45 2.6 2.6 0.00 0.00 0.00 43 1010.1
20260902155056 72 45 2.6 2.6 0.00 0.00 0.00 42 1010.2
20260902154536 72 45 2.6 2.6 0.00 0.00 0.00 42 1010.2
20260902154036 73 68 1.7 1.7 0.00 0.00 0.00 42 1010.2
20260902153537 73 68 1.7 1.7 0.00 0.00 0.00 42 1010.2
20260902153036 73 22 0.9 0.9 0.00 0.00 0.00 41 1010.1
20260902152553 73 22 0.9 0.9 0.00 0.00 0.00 41 1010.1
20260902152059 74 68 1.7 1.7 0.00 0.00 0.00 40 1010.3
20260902151557 74 68 1.7 1.7 0.00 0.00 0.00 40 1010.3
20260902151036 74 22 1.7 1.7 0.00 0.00 0.00 40 1010.3
20260902150535 74 22 1.7 1.7 0.00 0.00 0.00 40 1010.3
20260902150036 74 68 1.7 1.7 0.00 0.00 0.00 40 1010.4
20260902145554 74 68 1.7 1.7 0.00 0.00 0.00 40 1010.4
20260902145055 74 68 3.5 3.5 0.00 0.00 0.00 39 1010.3
20260902144535 74 68 3.5 3.5 0.00 0.00 0.00 39 1010.3
20260902144037 74 22 2.6 2.6 0.00 0.00 0.00 40 1010.3
20260902143535 74 22 2.6 2.6 0.00 0.00 0.00 40 1010.3
20260902143037 74 0 5.2 5.2 0.00 0.00 0.00 40 1010.7
20260902142536 74 0 5.2 5.2 0.00 0.00 0.00 40 1010.7
20260902142036 74 68 0.9 0.9 0.00 0.00 0.00 40 1010.6
20260902141555 74 68 0.9 0.9 0.00 0.00 0.00 40 1010.6
20260902141035 74 90 0.9 0.9 0.00 0.00 0.00 41 1010.6
20260902140536 74 90 0.9 0.9 0.00 0.00 0.00 41 1010.6
20260902140042 74 0 4.3 4.3 0.00 0.00 0.00 40 1010.7
20260902135536 74 0 4.3 4.3 0.00 0.00 0.00 40 1010.7
20260902135037 74 68 2.6 2.6 0.00 0.00 0.00 40 1010.9
20260902134535 74 68 2.6 2.6 0.00 0.00 0.00 40 1010.9
20260902134057 74 45 1.7 1.7 0.00 0.00 0.00 41 1010.9
20260902133555 74 45 1.7 1.7 0.00 0.00 0.00 41 1010.9
20260902133036 74 90 2.6 2.6 0.00 0.00 0.00 41 1010.8
20260902132536 74 90 2.6 2.6 0.00 0.00 0.00 41 1010.8
20260902132036 75 68 1.7 1.7 0.00 0.00 0.00 40 1010.9
20260902131536 75 68 1.7 1.7 0.00 0.00 0.00 40 1010.9
20260902131035 75 68 4.3 4.3 0.00 0.00 0.00 40 1010.9
20260902130535 75 68 4.3 4.3 0.00 0.00 0.00 40 1010.9
20260902130036 75 45 3.5 3.5 0.00 0.00 0.00 40 1011.0
20260902125536 75 45 3.5 3.5 0.00 0.00 0.00 40 1011.0
20260902125036 76 45 1.7 1.7 0.00 0.00 0.00 40 1011.2
20260902124535 76 45 1.7 1.7 0.00 0.00 0.00 40 1011.2
20260902124040 76 68 0.9 0.9 0.00 0.00 0.00 39 1011.2
20260902123536 76 68 0.9 0.9 0.00 0.00 0.00 39 1011.2
20260902123055 76 90 0.0 0.0 0.00 0.00 0.00 40 1011.3
20260902122555 76 90 0.0 0.0 0.00 0.00 0.00 40 1011.3
20260902122036 76 90 4.3 4.3 0.00 0.00 0.00 39 1011.5
20260902121534 76 90 4.3 4.3 0.00 0.00 0.00 39 1011.5
20260902121036 76 0 0.0 0.0 0.00 0.00 0.00 39 1011.5
20260902120536 76 0 0.0 0.0 0.00 0.00 0.00 39 1011.5
20260902120050 76 22 3.5 3.5 0.00 0.00 0.00 40 1011.7
20260902115536 76 22 3.5 3.5 0.00 0.00 0.00 40 1011.7
20260902115056 76 45 3.5 3.5 0.00 0.00 0.00 39 1011.8
20260902114536 76 45 3.5 3.5 0.00 0.00 0.00 39 1011.8
20260902114042 76 90 3.5 3.5 0.00 0.00 0.00 39 1011.8
20260902113537 76 90 3.5 3.5 0.00 0.00 0.00 39 1011.8
20260902113043 75 90 3.5 3.5 0.00 0.00 0.00 40 1011.7
20260902112536 75 90 3.5 3.5 0.00 0.00 0.00 40 1011.7
20260902112036 75 0 5.2 5.2 0.00 0.00 0.00 41 1011.9
20260902111535 75 0 5.2 5.2 0.00 0.00 0.00 41 1011.9
20260902111036 75 0 5.2 5.2 0.00 0.00 0.00 40 1011.9
20260902110536 75 0 5.2 5.2 0.00 0.00 0.00 40 1011.9
20260902110057 75 22 0.9 0.9 0.00 0.00 0.00 40 1012.2
20260902105536 75 22 0.9 0.9 0.00 0.00 0.00 40 1012.2
20260902105100 74 112 5.2 5.2 0.00 0.00 0.00 40 1012.1
20260902104536 74 112 5.2 5.2 0.00 0.00 0.00 40 1012.1
20260902104036 74 90 0.9 0.9 0.00 0.00 0.00 41 1012.1
20260902103536 74 90 0.9 0.9 0.00 0.00 0.00 41 1012.1
20260902103036 74 158 0.0 0.0 0.00 0.00 0.00 42 1012.4
20260902102535 74 158 0.0 0.0 0.00 0.00 0.00 42 1012.4
20260902102036 74 112 0.0 0.0 0.00 0.00 0.00 42 1012.5
20260902101535 74 112 0.0 0.0 0.00 0.00 0.00 42 1012.5
20260902101042 74 112 0.9 0.9 0.00 0.00 0.00 43 1012.5
20260902100536 74 112 0.9 0.9 0.00 0.00 0.00 43 1012.5
20260902100036 74 90 0.9 0.9 0.00 0.00 0.00 44 1012.5
20260902095535 74 90 0.9 0.9 0.00 0.00 0.00 44 1012.5
20260902095035 74 158 1.7 1.7 0.00 0.00 0.00 42 1012.4
20260902094553 74 158 1.7 1.7 0.00 0.00 0.00 42 1012.4
20260902094055 74 112 0.0 0.0 0.00 0.00 0.00 43 1012.4
20260902093536 74 112 0.0 0.0 0.00 0.00 0.00 43 1012.4
20260902093035 72 90 0.9 0.9 0.00 0.00 0.00 42 1012.6
20260902092536 72 90 0.9 0.9 0.00 0.00 0.00 42 1012.6
20260902092036 71 135 3.5 3.5 0.00 0.00 0.00 44 1012.7
20260902091535 71 135 3.5 3.5 0.00 0.00 0.00 44 1012.7
20260902091035 73 68 0.0 0.0 0.00 0.00 0.00 43 1012.7
20260902090535 73 68 0.0 0.0 0.00 0.00 0.00 43 1012.7
20260902090059 73 45 0.0 0.0 0.00 0.00 0.00 43 1012.6
20260902085554 73 45 0.0 0.0 0.00 0.00 0.00 43 1012.6
20260902085035 72 112 5.2 5.2 0.00 0.00 0.00 43 1012.7
20260902084536 72 112 5.2 5.2 0.00 0.00 0.00 43 1012.7
20260902084035 72 68 0.0 0.0 0.00 0.00 0.00 44 1012.7
20260902083534 72 68 0.0 0.0 0.00 0.00 0.00 44 1012.7
20260902083035 73 68 0.9 0.9 0.00 0.00 0.00 43 1012.4
20260902082554 73 68 0.9 0.9 0.00 0.00 0.00 43 1012.4
20260902082057 74 90 0.0 0.0 0.00 0.00 0.00 43 1012.6
20260902081553 74 90 0.0 0.0 0.00 0.00 0.00 43 1012.6
20260902081036 73 90 1.7 1.7 0.00 0.00 0.00 43 1012.6
20260902080535 73 90 1.7 1.7 0.00 0.00 0.00 43 1012.6
20260902080046 72 90 1.7 1.7 0.00 0.00 0.00 44 1012.3
20260902075535 72 90 1.7 1.7 0.00 0.00 0.00 44 1012.3
20260902075036 72 68 3.5 3.5 0.00 0.00 0.00 44 1012.3
20260902074536 72 68 3.5 3.5 0.00 0.00 0.00 44 1012.3
20260902074036 71 90 0.0 0.0 0.00 0.00 0.00 44 1012.3
20260902073535 71 90 0.0 0.0 0.00 0.00 0.00 44 1012.3
20260902073034 72 68 0.9 0.9 0.00 0.00 0.00 42 1012.4
20260902072535 72 68 0.9 0.9 0.00 0.00 0.00 42 1012.4
20260902072033 72 112 2.6 2.6 0.00 0.00 0.00 42 1012.2
20260902071535 72 112 2.6 2.6 0.00 0.00 0.00 42 1012.2
20260902071036 71 112 1.7 1.7 0.00 0.00 0.00 44 1012.2
20260902070535 71 112 1.7 1.7 0.00 0.00 0.00 44 1012.2
20260902070035 71 112 1.7 1.7 0.00 0.00 0.00 43 1012.0
20260902065552 71 112 1.7 1.7 0.00 0.00 0.00 43 1012.0
20260902065057 71 112 0.0 0.0 0.00 0.00 0.00 44 1012.2
20260902064552 71 112 0.0 0.0 0.00 0.00 0.00 44 1012.2
20260902064056 70 135 0.9 0.9 0.00 0.00 0.00 43 1012.2
20260902063534 70 135 0.9 0.9 0.00 0.00 0.00 43 1012.2
20260902063035 68 112 0.0 0.0 0.00 0.00 0.00 46 1012.0
20260902062536 68 112 0.0 0.0 0.00 0.00 0.00 46 1012.0
20260902062036 67 112 2.6 2.6 0.00 0.00 0.00 49 1012.1
20260902061534 67 112 2.6 2.6 0.00 0.00 0.00 49 1012.1
20260902061035 68 112 0.0 0.0 0.00 0.00 0.00 49 1012.1
20260902060536 68 112 0.0 0.0 0.00 0.00 0.00 49 1012.1
20260902060036 68 112 0.0 0.0 0.00 0.00 0.00 50 1012.1
20260902055536 68 112 0.0 0.0 0.00 0.00 0.00 50 1012.1
20260902055036 68 112 4.3 4.3 0.00 0.00 0.00 49 1011.9
20260902054535 68 112 4.3 4.3 0.00 0.00 0.00 49 1011.9
20260902054035 69 135 2.6 2.6 0.00 0.00 0.00 50 1011.9
20260902053535 69 135 2.6 2.6 0.00 0.00 0.00 50 1011.9
20260902053055 68 158 0.0 0.0 0.00 0.00 0.00 51 1012.0
20260902052535 68 158 0.0 0.0 0.00 0.00 0.00 51 1012.0
20260902052054 68 158 1.7 1.7 0.00 0.00 0.00 52 1011.8
20260902051535 68 158 1.7 1.7 0.00 0.00 0.00 52 1011.8
20260902051042 66 158 1.7 1.7 0.00 0.00 0.00 52 1011.8
20260902050535 66 158 1.7 1.7 0.00 0.00 0.00 52 1011.8
20260902050035 65 158 0.0 0.0 0.00 0.00 0.00 54 1011.8
20260902045535 65 158 0.0 0.0 0.00 0.00 0.00 54 1011.8
20260902045034 64 158 0.9 0.9 0.00 0.00 0.00 55 1012.0
20260902044535 64 158 0.9 0.9 0.00 0.00 0.00 55 1012.0
20260902044036 62 158 0.9 0.9 0.00 0.00 0.00 57 1012.0
20260902043536 62 158 0.9 0.9 0.00 0.00 0.00 57 1012.0
20260902043036 61 158 0.0 0.0 0.00 0.00 0.00 59 1011.8
20260902042537 61 158 0.0 0.0 0.00 0.00 0.00 59 1011.8
20260902042036 61 158 0.0 0.0 0.00 0.00 0.00 59 1011.9
20260902041536 61 158 0.0 0.0 0.00 0.00 0.00 59 1011.9
20260902041036 60 158 0.9 0.9 0.00 0.00 0.00 60 1011.9
20260902040535 60 158 0.9 0.9 0.00 0.00 0.00 60 1011.9
20260902040036 61 158 0.9 0.9 0.00 0.00 0.00 61 1011.9
20260902035554 61 158 0.9 0.9 0.00 0.00 0.00 61 1011.9
20260902035036 61 158 0.0 0.0 0.00 0.00 0.00 61 1012.0
20260902034534 61 158 0.0 0.0 0.00 0.00 0.00 61 1012.0
20260902034035 60 158 0.0 0.0 0.00 0.00 0.00 62 1012.0
20260902033534 60 158 0.0 0.0 0.00 0.00 0.00 62 1012.0
20260902033034 61 158 0.0 0.0 0.00 0.00 0.00 62 1012.1
20260902032534 61 158 0.0 0.0 0.00 0.00 0.00 62 1012.1
20260902032036 61 158 0.9 0.9 0.00 0.00 0.00 62 1012.1
20260902031534 61 158 0.9 0.9 0.00 0.00 0.00 62 1012.1
20260902031034 61 158 0.9 0.9 0.00 0.00 0.00 62 1012.1
20260902030534 61 158 0.9 0.9 0.00 0.00 0.00 62 1012.1
20260902030052 61 90 0.0 0.0 0.00 0.00 0.00 62 1012.1
20260902025553 61 90 0.0 0.0 0.00 0.00 0.00 62 1012.1
20260902025035 61 90 0.0 0.0 0.00 0.00 0.00 62 1011.9
20260902024534 61 90 0.0 0.0 0.00 0.00 0.00 62 1011.9
20260902024036 61 90 0.9 0.9 0.00 0.00 0.00 61 1011.9
20260902023534 61 90 0.9 0.9 0.00 0.00 0.00 61 1011.9
20260902023035 62 90 0.0 0.0 0.00 0.00 0.00 61 1012.0
20260902022535 62 90 0.0 0.0 0.00 0.00 0.00 61 1012.0
20260902022035 62 90 0.9 0.9 0.00 0.00 0.00 61 1012.1
20260902021553 62 90 0.9 0.9 0.00 0.00 0.00 61 1012.1
20260902021054 62 90 0.9 0.9 0.00 0.00 0.00 61 1012.1
20260902020534 62 90 0.9 0.9 0.00 0.00 0.00 61 1012.1
20260902020036 62 90 0.9 0.9 0.00 0.00 0.00 61 1012.3
20260902015534 62 90 0.9 0.9 0.00 0.00 0.00 61 1012.3
20260902015035 62 90 0.0 0.0 0.00 0.00 0.00 61 1012.1
20260902014534 62 90 0.0 0.0 0.00 0.00 0.00 61 1012.1
20260902014034 62 90 0.0 0.0 0.00 0.00 0.00 61 1012.1
20260902013535 62 90 0.0 0.0 0.00 0.00 0.00 61 1012.1
20260902013036 61 90 0.0 0.0 0.00 0.00 0.00 62 1012.3
20260902012533 61 90 0.0 0.0 0.00 0.00 0.00 62 1012.3
20260902012036 62 90 0.0 0.0 0.00 0.00 0.00 61 1012.2
20260902011535 62 90 0.0 0.0 0.00 0.00 0.00 61 1012.2
20260902011034 62 90 0.0 0.0 0.00 0.00 0.00 60 1012.2
20260902010536 62 90 0.0 0.0 0.00 0.00 0.00 60 1012.2
20260902010034 62 90 0.0 0.0 0.00 0.00 0.00 60 1012.1
20260902005536 62 90 0.0 0.0 0.00 0.00 0.00 60 1012.1
20260902005035 62 90 0.0 0.0 0.00 0.00 0.00 60 1012.1
20260902004535 62 90 0.0 0.0 0.00 0.00 0.00 60 1012.1
20260902004038 62 90 0.0 0.0 0.00 0.00 0.00 60 1012.1
20260902003535 62 90 0.0 0.0 0.00 0.00 0.00 60 1012.1
20260902003041 62 90 0.0 0.0 0.00 0.00 0.00 60 1012.3
20260902002534 62 90 0.0 0.0 0.00 0.00 0.00 60 1012.3
20260902002042 62 90 0.0 0.0 0.00 0.00 0.00 59 1012.1
20260902001541 62 90 0.0 0.0 0.00 0.00 0.00 59 1012.1
20260902001035 62 90 0.0 0.0 0.00 0.00 0.00 59 1012.1
20260902000536 62 90 0.0 0.0 0.00 0.00 0.00 59 1012.1
20260902000035 62 90 0.0 0.0 0.00 0.00 0.00 59 1012.3
20260901235534 62 90 0.0 0.0 0.00 0.00 0.00 59 1012.3
20260901235034 63 90 0.0 0.0 0.00 0.00 0.00 59 1012.2
20260901234535 63 90 0.0 0.0 0.00 0.00 0.00 59 1012.2
20260901234035 63 90 0.0 0.0 0.00 0.00 0.00 59 1012.2
20260901233535 63 90 0.0 0.0 0.00 0.00 0.00 59 1012.2
20260901233036 63 90 0.0 0.0 0.00 0.00 0.00 59 1012.4
20260901232554 63 90 0.0 0.0 0.00 0.00 0.00 59 1012.4
20260901232044 63 112 0.0 0.0 0.00 0.00 0.00 58 1012.3
20260901231536 63 112 0.0 0.0 0.00 0.00 0.00 58 1012.3
20260901231034 63 90 0.9 0.9 0.00 0.00 0.00 59 1012.3
20260901230553 63 90 0.9 0.9 0.00 0.00 0.00 59 1012.3
20260901230035 63 22 0.0 0.0 0.00 0.00 0.00 60 1012.4
20260901225535 63 22 0.0 0.0 0.00 0.00 0.00 60 1012.4
20260901225035 63 22 0.9 0.9 0.00 0.00 0.00 60 1012.5
20260901224552 63 22 0.9 0.9 0.00 0.00 0.00 60 1012.5
20260901224035 63 22 3.5 3.5 0.00 0.00 0.00 60 1012.5
20260901223534 63 22 3.5 3.5 0.00 0.00 0.00 60 1012.5
20260901223035 63 22 2.6 2.6 0.00 0.00 0.00 62 1012.5
20260901222535 63 22 2.6 2.6 0.00 0.00 0.00 62 1012.5
20260901222035 63 22 0.0 0.0 0.00 0.00 0.00 63 1012.5
20260901221536 63 22 0.0 0.0 0.00 0.00 0.00 63 1012.5
20260901221035 63 22 0.9 0.9 0.00 0.00 0.00 63 1012.5
20260901220554 63 22 0.9 0.9 0.00 0.00 0.00 63 1012.5
20260901220043 63 22 0.0 0.0 0.00 0.00 0.00 63 1012.5
20260901215534 63 22 0.0 0.0 0.00 0.00 0.00 63 1012.5
20260901215035 63 22 2.6 2.6 0.00 0.00 0.00 62 1012.5
20260901214533 63 22 2.6 2.6 0.00 0.00 0.00 62 1012.5
20260901214035 63 22 0.0 0.0 0.00 0.00 0.00 63 1012.5
20260901213553 63 22 0.0 0.0 0.00 0.00 0.00 63 1012.5
20260901213036 63 22 0.0 0.0 0.00 0.00 0.00 64 1012.3
20260901212535 63 22 0.0 0.0 0.00 0.00 0.00 64 1012.3
20260901212035 63 22 0.0 0.0 0.00 0.00 0.00 66 1012.1
20260901211535 63 22 0.0 0.0 0.00 0.00 0.00 66 1012.1
20260901211042 64 22 0.0 0.0 0.00 0.00 0.00 67 1012.1
20260901210552 64 22 0.0 0.0 0.00 0.00 0.00 67 1012.1
20260901210035 64 22 0.9 0.9 0.00 0.00 0.00 66 1012.2
20260901205535 64 22 0.9 0.9 0.00 0.00 0.00 66 1012.2
20260901205035 64 22 0.9 0.9 0.00 0.00 0.00 66 1012.3
20260901204534 64 22 0.9 0.9 0.00 0.00 0.00 66 1012.3
20260901204035 65 22 1.7 1.7 0.00 0.00 0.00 65 1012.3
20260901203553 65 22 1.7 1.7 0.00 0.00 0.00 65 1012.3
20260901203053 65 22 3.5 3.5 0.00 0.00 0.00 65 1012.0
20260901202552 65 22 3.5 3.5 0.00 0.00 0.00 65 1012.0
20260901201534 65 22 1.7 1.7 0.00 0.00 0.00 64 1012.1
20260901201035 65 22 0.9 0.9 0.00 0.00 0.00 64 1012.1
20260901200534 65 22 0.9 0.9 0.00 0.00 0.00 64 1012.1
20260901200035 65 22 3.5 3.5 0.00 0.00 0.00 64 1012.0
20260901195535 65 22 3.5 3.5 0.00 0.00 0.00 64 1012.0
20260901195034 65 22 0.9 0.9 0.00 0.00 0.00 65 1012.0
20260901194534 65 22 0.9 0.9 0.00 0.00 0.00 65 1012.0
20260901194058 65 22 0.9 0.9 0.00 0.00 0.00 65 1012.0
20260901193555 65 22 0.9 0.9 0.00 0.00 0.00 65 1012.0
20260901193035 65 22 0.9 0.9 0.00 0.00 0.00 65 1011.9
20260901192535 65 22 0.9 0.9 0.00 0.00 0.00 65 1011.9
20260901192043 65 22 0.0 0.0 0.00 0.00 0.00 65 1011.9
20260901191535 65 22 0.0 0.0 0.00 0.00 0.00 65 1011.9
20260901191036 65 22 0.9 0.9 0.00 0.00 0.00 65 1011.9
20260901190534 65 22 0.9 0.9 0.00 0.00 0.00 65 1011.9
20260901190036 65 22 0.9 0.9 0.00 0.00 0.00 66 1012.0
20260901185553 65 22 0.9 0.9 0.00 0.00 0.00 66 1012.0
20260901185056 65 22 2.6 2.6 0.00 0.00 0.00 66 1011.7
20260901184535 65 22 2.6 2.6 0.00 0.00 0.00 66 1011.7
20260901184035 65 22 1.7 1.7 0.00 0.00 0.00 67 1011.7
20260901183535 65 22 1.7 1.7 0.00 0.00 0.00 67 1011.7
20260901183035 65 0 1.7 1.7 0.00 0.00 0.00 67 1011.4
20260901182537 65 0 1.7 1.7 0.00 0.00 0.00 67 1011.4
20260901182035 65 0 0.9 0.9 0.00 0.00 0.00 67 1011.4
20260901181535 65 0 0.9 0.9 0.00 0.00 0.00 67 1011.4
20260901181035 66 0 0.0 0.0 0.00 0.00 0.00 67 1011.4
20260901180554 66 0 0.0 0.0 0.00 0.00 0.00 67 1011.4